カタログに戻る

CZ-6A DEB

運用中SSO
NORAD 54500·DEBRIS·🇨🇳 China

打ち上げ Nov 11, 2022 から Taiyuan Satellite Launch Center

Loading…

次のパス (今後24時間)

TLE

最新Source: Space-Track

元期: Sep 14, 2026, 01:48 UTC

1 54500U 22151JC  26257.07555089  .00001740  00000-0  65640-3 0  9992
2 54500  98.8747 304.4442 0107431 268.4321  90.4553 14.29575195199285

AllMySatでCZ-6A DEBをリアルタイム追跡

Download on the App Store